Weather History for Indiana, PA

Change the Weather History Date:

Friday, November 2, 2012

  Actual Average Record
Temperature  
Mean Temperature 37 °F -  
Max Temperature 39 °F 62 °F 78 °F (1982)
Min Temperature 35 °F 39 °F 19 °F (1976)
Degree Days  
Heating Degree Days 28    
Moisture  
Dew Point 35 °F    
Average Humidity 95    
Maximum Humidity 100    
Minimum Humidity 75    
Precipitation  
Precipitation 0.04 in - - ()
Sea Level Pressure  
Sea Level Pressure 29.81 in    
Wind  
Wind Speed 7 mph (West)    
Max Wind Speed 15 mph    
Max Gust Speed 24 mph    
Visibility 10 miles    
Events      
Averages and records for this station are not official NWS values.
T = Trace of Precipitation, MM = Missing Value Source: NWS Daily Summary

Daily Weather History Graph

Daily Weather History Graph

Search for Another Location

Airport:

Trip Planner

Search our weather history database for the weather conditions in past years. The results will help you decide how hot, cold, wet, or windy it might be!

Date:

Astronomy

Nov. 02, 2012 Rise Set
Actual Time 7:48 AM EDT 6:11 PM EDT
Civil Twilight 7:19 AM EDT 6:39 PM EDT
Nautical Twilight 6:47 AM EDT 7:11 PM EDT
Astronomical Twilight 6:15 AM EDT 7:43 PM EDT
Moon 8:56 PM EDT (11/2) 11:08 AM EDT (11/2)
Length of Visible Light 11h 19m
Length of Day
10h 22m
Waning Gibbous, 87% of the Moon is Illuminated
Nov 2
Waning Gibbous
Nov 6
Last Quarter
Nov 13
New
Nov 20
First Quarter
Nov 28
Full

Hourly Weather History & Observations

Time (EDT) Temp. Windchill Dew Point Humidity Pressure Visibility Wind Dir Wind Speed Gust Speed Precip Events Conditions
12:15 AM 35.6 °F 30.7 °F 35.6 °F 100% 29.73 in 10.0 mi WSW 5.8 mph - N/A   Unknown
12:35 AM 35.6 °F 30.7 °F 35.6 °F 100% 29.73 in 10.0 mi WSW 5.8 mph - N/A   Unknown
12:55 AM 35.6 °F 31.7 °F 35.6 °F 100% 29.73 in 10.0 mi West 4.6 mph - N/A   Unknown
1:15 AM 35.6 °F 30.7 °F 35.6 °F 100% 29.73 in 10.0 mi West 5.8 mph - N/A   Unknown
1:35 AM 35.6 °F 30.7 °F 35.6 °F 100% 29.73 in 10.0 mi WSW 5.8 mph - N/A   Unknown
1:55 AM 35.6 °F 31.7 °F 35.6 °F 100% 29.73 in 10.0 mi WSW 4.6 mph - N/A   Unknown
2:15 AM 35.6 °F 32.8 °F 35.6 °F 100% 29.72 in 10.0 mi WSW 3.5 mph - N/A   Unknown
2:35 AM 35.6 °F 32.8 °F 35.6 °F 100% 29.72 in 10.0 mi WSW 3.5 mph - N/A   Unknown
2:55 AM 35.6 °F 32.8 °F 35.6 °F 100% 29.72 in 10.0 mi WSW 3.5 mph - N/A   Unknown
3:15 AM 35.6 °F 32.8 °F 35.6 °F 100% 29.72 in 10.0 mi WSW 3.5 mph - N/A   Unknown
3:35 AM 35.6 °F - 35.6 °F 100% 29.71 in 10.0 mi Calm Calm - N/A   Unknown
3:55 AM 35.6 °F - 35.6 °F 100% 29.71 in 10.0 mi Calm Calm - N/A   Unknown
4:15 AM 35.6 °F 31.7 °F 35.6 °F 100% 29.71 in 10.0 mi WSW 4.6 mph - N/A   Unknown
4:35 AM 35.6 °F 32.8 °F 35.6 °F 100% 29.71 in 10.0 mi WSW 3.5 mph - N/A   Unknown
4:55 AM 35.6 °F 32.8 °F 35.6 °F 100% 29.71 in 10.0 mi West 3.5 mph - N/A   Unknown
5:15 AM 35.6 °F 30.7 °F 35.6 °F 100% 29.71 in 10.0 mi West 5.8 mph - N/A   Unknown
5:35 AM 35.6 °F 29.9 °F 35.6 °F 100% 29.71 in 10.0 mi West 6.9 mph - N/A   Unknown
5:55 AM 35.6 °F 31.7 °F 35.6 °F 100% 29.71 in 10.0 mi West 4.6 mph - N/A   Unknown
6:15 AM 35.6 °F 30.7 °F 35.6 °F 100% 29.72 in 5.0 mi WNW 5.8 mph - 0.01 in   Unknown
6:35 AM 35.6 °F 29.9 °F 35.6 °F 100% 29.73 in 7.0 mi WNW 6.9 mph - 0.02 in   Unknown
6:55 AM 35.6 °F 27.5 °F 35.6 °F 100% 29.73 in 7.0 mi WNW 11.5 mph - 0.03 in   Unknown
7:15 AM 35.6 °F 31.7 °F 35.6 °F 100% 29.73 in 10.0 mi WNW 4.6 mph - 0.01 in   Unknown
7:35 AM 35.6 °F 30.7 °F 35.6 °F 100% 29.74 in 10.0 mi West 5.8 mph - 0.01 in   Unknown
7:55 AM 35.6 °F 30.7 °F 35.6 °F 100% 29.74 in 10.0 mi West 5.8 mph - 0.01 in   Unknown
8:15 AM 35.6 °F 29.9 °F 35.6 °F 100% 29.75 in 7.0 mi West 6.9 mph - N/A   Unknown
8:35 AM 35.6 °F 28.6 °F 35.6 °F 100% 29.75 in 7.0 mi WSW 9.2 mph - N/A   Unknown
8:55 AM 35.6 °F 29.2 °F 35.6 °F 100% 29.76 in 7.0 mi West 8.1 mph - N/A   Unknown
9:15 AM 35.6 °F 29.2 °F 35.6 °F 100% 29.77 in 7.0 mi West 8.1 mph - N/A   Unknown
9:35 AM 35.6 °F 30.7 °F 35.6 °F 100% 29.77 in 10.0 mi West 5.8 mph - N/A   Unknown
9:55 AM 37.4 °F 29.3 °F 37.4 °F 100% 29.78 in 10.0 mi West 12.7 mph - N/A   Unknown
10:15 AM 37.4 °F 30.3 °F 37.4 °F 100% 29.78 in 10.0 mi West 10.4 mph 18.4 mph N/A   Unknown
10:35 AM 37.4 °F 31.4 °F 37.4 °F 100% 29.78 in 10.0 mi West 8.1 mph - N/A   Unknown
10:55 AM 37.4 °F 30.8 °F 37.4 °F 100% 29.78 in 10.0 mi West 9.2 mph - N/A   Unknown
11:15 AM 37.4 °F 29.8 °F 37.4 °F 100% 29.79 in 10.0 mi West 11.5 mph - N/A   Unknown
11:35 AM 39.2 °F 32.5 °F 37.4 °F 93% 29.80 in 10.0 mi WNW 10.4 mph 17.3 mph N/A   Unknown
11:55 AM 39.2 °F 31.6 °F 35.6 °F 87% 29.80 in 10.0 mi West 12.7 mph 19.6 mph N/A   Unknown
12:15 PM 39.2 °F 32.5 °F 37.4 °F 93% 29.80 in 10.0 mi West 10.4 mph 17.3 mph N/A   Unknown
12:35 PM 39.2 °F 32.5 °F 37.4 °F 93% 29.79 in 10.0 mi West 10.4 mph 17.3 mph N/A   Unknown
12:55 PM 39.2 °F 33.6 °F 35.6 °F 87% 29.80 in 10.0 mi WNW 8.1 mph 18.4 mph N/A   Unknown
1:15 PM 39.2 °F 30.8 °F 35.6 °F 87% 29.80 in 10.0 mi WNW 15.0 mph 20.7 mph N/A   Unknown
1:35 PM 39.2 °F 31.6 °F 35.6 °F 87% 29.80 in 10.0 mi NW 12.7 mph 17.3 mph N/A   Unknown
1:55 PM 39.2 °F 32.5 °F 37.4 °F 93% 29.80 in 10.0 mi WNW 10.4 mph 16.1 mph N/A   Unknown
2:15 PM 37.4 °F 30.3 °F 37.4 °F 100% 29.81 in 7.0 mi NW 10.4 mph 21.9 mph N/A   Unknown
2:35 PM 39.2 °F 32.0 °F 37.4 °F 93% 29.81 in 10.0 mi WNW 11.5 mph 19.6 mph N/A   Unknown
2:55 PM 37.4 °F 29.8 °F 35.6 °F 93% 29.82 in 10.0 mi WNW 11.5 mph 18.4 mph N/A   Unknown
3:15 PM 37.4 °F 29.8 °F 35.6 °F 93% 29.83 in 10.0 mi WNW 11.5 mph 18.4 mph N/A   Unknown
3:35 PM 37.4 °F 32.1 °F 35.6 °F 93% 29.83 in 10.0 mi WNW 6.9 mph 20.7 mph N/A   Unknown
3:55 PM 39.2 °F 32.5 °F 35.6 °F 87% 29.84 in 10.0 mi WNW 10.4 mph 17.3 mph N/A   Unknown
4:15 PM 39.2 °F 30.8 °F 35.6 °F 87% 29.84 in 10.0 mi West 15.0 mph 24.2 mph N/A   Unknown
4:35 PM 39.2 °F 30.8 °F 37.4 °F 93% 29.85 in 10.0 mi West 15.0 mph - N/A   Unknown
4:55 PM 39.2 °F 32.5 °F 35.6 °F 87% 29.85 in 10.0 mi WNW 10.4 mph 17.3 mph N/A   Unknown
5:15 PM 39.2 °F 31.2 °F 32.0 °F 75% 29.86 in 10.0 mi WNW 13.8 mph 24.2 mph N/A   Unknown
5:35 PM 39.2 °F 32.5 °F 33.8 °F 81% 29.87 in 10.0 mi WNW 10.4 mph 21.9 mph N/A   Unknown
5:55 PM 37.4 °F 29.8 °F 33.8 °F 87% 29.88 in 10.0 mi WNW 11.5 mph 17.3 mph N/A   Unknown
6:15 PM 37.4 °F 31.4 °F 33.8 °F 87% 29.89 in 10.0 mi WNW 8.1 mph - N/A   Unknown
6:35 PM 37.4 °F 32.1 °F 33.8 °F 87% 29.90 in 10.0 mi WNW 6.9 mph 16.1 mph N/A   Unknown
6:55 PM 37.4 °F 30.8 °F 32.0 °F 81% 29.91 in 10.0 mi WNW 9.2 mph 17.3 mph N/A   Unknown
7:15 PM 37.4 °F 29.8 °F 35.6 °F 93% 29.92 in 10.0 mi WNW 11.5 mph 16.1 mph N/A   Unknown
7:35 PM 37.4 °F 31.4 °F 35.6 °F 93% 29.92 in 10.0 mi WNW 8.1 mph - N/A   Unknown
7:55 PM 37.4 °F 30.3 °F 35.6 °F 93% 29.92 in 10.0 mi WNW 10.4 mph 17.3 mph N/A   Unknown
8:15 PM 37.4 °F 30.8 °F 35.6 °F 93% 29.92 in 10.0 mi West 9.2 mph 19.6 mph N/A   Unknown
8:35 PM 37.4 °F 30.3 °F 35.6 °F 93% 29.93 in 10.0 mi West 10.4 mph 16.1 mph N/A   Unknown
8:55 PM 35.6 °F 28.6 °F 35.6 °F 100% 29.93 in 10.0 mi WNW 9.2 mph - N/A   Unknown
9:15 PM 35.6 °F 27.5 °F 33.8 °F 93% 29.93 in 10.0 mi WNW 11.5 mph 16.1 mph N/A   Unknown
9:35 PM 35.6 °F 28.0 °F 33.8 °F 93% 29.94 in 10.0 mi WNW 10.4 mph 18.4 mph N/A   Unknown
9:55 PM 35.6 °F 28.6 °F 33.8 °F 93% 29.94 in 10.0 mi WNW 9.2 mph 16.1 mph N/A   Unknown
10:15 PM 35.6 °F 27.5 °F 33.8 °F 93% 29.95 in 10.0 mi WNW 11.5 mph 16.1 mph N/A   Unknown
10:35 PM 35.6 °F 28.6 °F 33.8 °F 93% 29.95 in 10.0 mi WNW 9.2 mph 16.1 mph N/A   Unknown
10:55 PM 35.6 °F 27.1 °F 33.8 °F 93% 29.95 in 10.0 mi WNW 12.7 mph 19.6 mph N/A   Unknown
11:15 PM 35.6 °F 29.2 °F 33.8 °F 93% 29.95 in 10.0 mi WNW 8.1 mph 19.6 mph N/A   Unknown
11:35 PM 35.6 °F 29.2 °F 35.6 °F 100% 29.95 in 10.0 mi NW 8.1 mph - N/A   Unknown
11:55 PM 35.6 °F 29.9 °F 33.8 °F 93% 29.95 in 10.0 mi WNW 6.9 mph - N/A   Unknown